Location: Warwick
(41.7000°N, 71.4170°W)
Time: 16:17:38
(UTC-04:00)

BREEZE-M DEB (TANK) - Visible Passes

Search period start: 01 October 2014 00:00
Search period end: 11 October 2014 00:00
Orbit: 277 x 16058 km, 49.5° (Epoch: 29 September)

Date Brightness Start Highest point End Pass type
(mag) Time Alt. Az. Time Alt. Az. Time Alt. Az.
01 Oct 7.6 00:00:00 30° WNW 01:58:57 73° WSW 02:37:13 10° SSE visible
01 Oct 8.6 18:05:13 10° SW 19:08:43 88° NW 21:38:11 10° E visible
01 Oct 7.6 23:42:00 10° WNW 02:15:13 67° WSW 02:52:22 10° SSE visible
02 Oct 8.5 18:21:13 10° SW 19:31:10 85° NNW 21:55:51 10° E visible
03 Oct 7.6 00:02:09 10° WNW 02:30:46 62° WSW 03:07:18 10° S visible
04 Oct 7.4 00:22:30 10° WNW 02:45:40 56° WSW 03:22:00 10° S visible
04 Oct 8.4 18:53:37 10° WSW 20:22:45 80° NNW 22:23:18 21° E visible
05 Oct 7.5 00:43:04 10° NW 02:59:55 51° W 03:36:26 10° S visible
05 Oct 8.3 19:10:03 10° WSW 20:52:34 79° N 22:34:48 30° E visible
06 Oct 7.5 01:03:50 10° NW 03:13:34 45° W 03:50:35 10° SSW visible
06 Oct 8.3 19:26:38 10° WSW 21:23:33 79° N 22:46:59 37° ESE visible
07 Oct 7.6 01:24:50 10° NW 03:26:37 40° W 03:37:25 39° WSW visible
07 Oct 8.2 19:43:24 10° W 21:52:56 80° NNE 22:59:32 44° ESE visible
08 Oct 7.7 01:46:09 10° NW 03:39:06 35° W 03:50:03 34° W visible
08 Oct 8.2 20:00:20 10° W 22:19:25 82° NNE 23:12:22 51° ESE visible
09 Oct 8.4 02:07:53 10° NW 03:51:02 31° W 04:02:56 30° W visible
09 Oct 8.2 20:17:26 10° W 22:43:17 85° NNE 23:25:24 57° ESE visible
10 Oct 8.5 02:30:12 10° NW 04:02:28 26° WNW 04:16:00 25° W visible
10 Oct 8.8 15:20:24 10° SSW 15:58:16 67° ESE 18:31:22 10° ENE visible
10 Oct 8.1 20:34:44 10° W 23:05:04 88° NE 23:38:36 63° SE visible
